Wind_Speed
11 10 9 10 10 9 10 11 13 18 21 22 24 27 28 28 30 33 34 35 36 37 39 41 42 44 46 48 43 39 42 42 43 44 46 46 46 47 44 44 44 44 43 46
10 9 9 9 9 10 11 13 16 19 23 25 28 29 29 29 30 32 34 36 37 39 40 41 43 44 44 44 44 45 45 46 46 45 50 51 49 53 55 54 54 52 52 49
8 9 9 11 11 13 15 17 19 21 25 28 32 32 30 29 30 31 31 33 35 38 40 41 41 43 44 46 48 49 51 52 51 53 55 55 55 58 62 61 62 61 58 57
9 9 10 13 14 16 18 22 23 24 26 28 31 38 32 33 34 37 38 40 43 45 46 47 48 50 49 48 48 51 55 58 59 59 58 59 60 62 64 65 67 67 67 66
9 12 14 15 16 18 21 23 25 27 29 29 31 40 38 38 41 45 47 50 53 54 56 57 58 59 59 58 56 55 55 55 56 58 60 63 64 66 67 69 70 70 71 74
12 12 15 16 17 18 21 24 27 27 30 33 36 40 42 46 50 52 54 56 58 60 61 63 64 63 63 61 58 58 59 59 60 64 67 68 70 72 74 77 78 77 78 78
12 13 15 18 19 21 23 26 29 33 34 39 40 44 47 51 53 55 58 60 62 63 64 65 68 69 68 65 62 63 63 64 66 68 69 72 75 77 81 84 85 84 84 86
15 16 19 21 22 23 25 28 33 37 39 40 42 46 49 50 55 57 60 62 64 65 67 70 71 70 68 68 68 69 69 71 76 78 78 76 76 78 80 88 93 94 93 94
17 19 21 22 23 27 29 33 37 40 43 44 46 47 49 52 56 58 62 63 64 67 69 69 67 68 69 71 72 74 78 81 85 85 83 79 81 84 83 84 85 87 91 97
21 22 23 25 28 31 34 38 41 43 46 50 50 50 50 55 59 61 63 64 66 67 67 67 68 71 73 76 78 80 82 83 81 82 84 84 86 87 88 87 85 85 86 90
24 25 28 31 33 36 39 41 43 44 47 52 55 52 51 57 60 63 65 66 67 67 68 70 74 76 77 79 83 87 88 84 83 86 86 87 87 81 70 66 67 70 74 76
28 29 32 34 37 39 41 44 46 48 51 53 57 54 54 56 60 63 65 66 67 68 70 75 77 78 81 85 89 89 87 85 85 86 85 78 67 60 56 59 61 57 55 54
32 34 37 40 41 43 44 46 47 51 53 52 58 54 56 59 61 62 65 66 66 71 74 75 78 82 86 90 88 87 85 84 81 75 71 67 61 56 55 57 56 54 52 48
37 38 41 44 46 46 46 47 49 52 55 57 55 59 51 59 60 61 63 67 71 73 75 78 81 84 90 88 88 85 85 84 75 68 66 65 61 57 55 55 52 49 50 47
41 42 44 46 47 48 48 45 49 54 56 59 56 62 58 61 64 65 68 69 71 74 77 81 85 89 87 88 84 83 79 73 67 65 64 62 60 58 55 52 51 47 45 44
44 47 48 47 49 51 48 45 51 54 56 58 61 60 61 62 65 69 68 69 74 75 80 84 87 89 88 85 83 76 68 66 68 66 65 59 58 57 54 50 49 47 47 46
47 50 53 53 52 54 52 51 52 55 57 59 59 60 62 63 68 69 67 73 77 81 86 87 88 86 84 78 72 72 72 72 68 64 59 54 53 53 51 49 46 42 43 43
51 54 56 58 57 57 55 53 54 60 58 59 62 61 64 65 67 68 71 77 79 85 87 87 87 86 79 78 76 73 69 66 60 56 54 51 50 51 48 49 45 38 40 40
54 56 59 60 60 60 54 57 60 63 60 60 61 64 63 68 70 66 72 76 83 86 87 88 84 82 78 74 72 70 66 63 60 54 49 46 48 47 46 46 44 38 38 38
56 57 59 59 60 60 60 62 65 68 64 63 65 65 67 71 73 68 70 75 80 82 84 82 80 76 75 71 69 67 65 62 59 54 49 50 49 48 42 41 40 36 35 36
55 55 56 58 61 59 59 67 68 65 67 64 64 64 68 70 70 72 74 77 79 81 78 75 71 70 66 64 64 59 56 52 49 48 48 48 47 40 36 35 34 34 32 32
53 54 55 58 60 64 62 65 64 65 62 62 62 65 67 66 68 71 74 77 80 78 73 66 62 57 55 57 57 56 54 50 45 42 41 40 35 33 30 30 29 30 29 26
56 54 55 59 58 59 63 61 64 61 61 61 63 66 65 64 66 69 72 75 76 72 65 62 55 53 51 54 55 52 47 44 40 36 34 31 29 29 28 26 25 26 22 21
53 55 58 61 55 58 62 64 59 58 58 61 63 62 62 64 66 68 72 74 73 67 59 53 53 53 50 49 48 48 45 40 36 34 30 28 25 24 23 20 21 19 17 14
49 48 52 56 56 58 60 57 57 56 58 60 58 59 61 64 66 69 71 72 67 61 54 53 53 54 55 50 47 43 41 38 31 29 27 25 18 16 15 16 18 14 12 13
45 46 50 58 57 58 54 53 53 54 54 55 57 58 60 62 64 67 69 70 63 55 49 52 52 57 53 48 46 43 38 34 32 24 21 19 12 4 10 14 12 11 11 11
Wind_Direction
245 245 253 255 262 266 273 279 286 291 294 294 294 296 295 296 296 295 294 292 291 289 288 287 286 286 286 289 288 277 278 274 272 272 269 267 269 263 260 260 258 254 253 254
237 254 257 263 272 278 282 287 288 291 294 295 297 297 298 298 297 294 292 291 290 289 288 288 288 288 287 285 282 281 277 275 271 266 268 270 267 264 264 266 266 263 257 251
234 243 263 276 284 289 292 295 297 297 299 301 305 306 312 309 302 302 298 296 295 296 296 294 291 290 289 288 285 282 280 276 272 269 266 264 264 264 265 264 266 267 263 257
241 254 264 276 287 296 300 301 302 303 302 305 309 311 320 318 317 311 308 306 305 304 303 302 301 301 299 293 285 277 274 274 274 271 267 267 268 265 264 265 263 264 265 265
241 258 271 282 295 302 304 302 305 306 307 308 309 312 321 319 315 312 309 307 306 305 306 306 305 304 304 301 298 292 288 281 276 273 272 271 270 270 270 268 266 264 263 265
260 269 283 295 301 306 305 306 307 310 312 313 313 311 322 319 314 310 307 305 305 305 304 303 303 302 300 298 295 292 288 285 281 277 276 274 270 267 267 267 266 265 263 261
271 283 289 296 302 302 304 308 312 315 316 316 316 313 314 311 309 308 306 305 305 305 305 303 302 301 301 299 297 295 294 293 291 287 280 276 271 267 266 265 265 263 262 262
276 285 292 295 296 304 313 317 316 314 312 310 311 310 310 311 308 307 307 307 307 307 306 305 304 303 300 299 298 297 297 296 294 291 289 286 279 274 269 265 262 259 258 258
278 283 288 296 306 313 313 311 311 309 308 308 307 306 307 309 305 305 306 307 308 306 305 305 304 304 303 301 301 300 299 298 296 294 292 289 285 281 276 271 267 262 259 258
284 289 297 306 308 307 309 309 309 308 308 305 306 305 310 304 306 308 309 309 309 309 309 308 307 306 304 304 304 303 302 299 296 294 292 290 287 284 282 279 275 270 265 260
289 297 302 306 306 306 306 305 305 305 304 303 304 306 309 307 308 310 310 311 310 309 309 308 307 306 305 304 304 303 300 298 296 293 293 291 289 291 288 285 280 276 274 271
297 301 303 304 305 304 304 306 306 304 304 304 303 310 307 309 309 310 309 311 311 310 308 307 306 306 307 307 305 303 300 298 296 294 294 295 293 289 290 290 287 281 277 275
300 301 302 301 301 303 305 305 306 305 304 304 302 311 310 308 310 310 310 308 307 306 306 308 310 311 310 307 303 301 299 298 297 295 294 292 289 289 292 293 288 282 279 276
299 301 301 302 302 302 305 307 308 307 306 304 310 306 312 308 308 306 306 306 307 308 310 311 311 310 309 306 304 302 301 299 297 294 291 288 285 284 285 287 284 280 277 276
297 299 298 299 299 300 304 309 311 310 306 305 309 308 309 308 308 309 309 309 308 312 312 313 312 311 308 306 304 302 300 298 297 295 292 288 285 282 281 281 278 272 274 277
294 295 296 297 298 299 302 308 308 308 308 308 308 309 307 308 308 311 313 312 313 314 314 314 313 310 309 308 305 303 300 296 296 296 295 293 288 283 279 278 275 269 270 272
292 294 296 296 297 296 299 304 306 308 309 308 307 309 307 308 312 314 314 314 316 317 317 315 313 312 310 308 306 303 300 299 299 297 293 289 285 282 278 274 270 266 267 267
293 294 295 296 297 296 301 306 308 307 311 308 309 309 310 312 314 316 315 316 317 317 317 315 315 314 313 312 309 306 305 304 301 299 296 291 284 282 279 272 268 260 262 262
293 294 295 297 296 296 297 304 308 309 312 309 310 311 311 313 315 316 315 317 318 318 317 318 319 318 317 315 312 311 309 306 304 299 293 289 288 282 276 270 266 253 256 259
295 296 296 298 295 298 301 302 305 308 311 308 308 312 313 315 315 315 315 317 318 320 320 321 321 321 320 319 317 315 312 309 306 302 290 291 289 285 273 270 266 249 249 256
295 295 296 296 295 299 299 302 304 309 310 309 311 312 314 315 315 317 319 319 321 322 323 324 325 325 325 323 322 322 321 317 308 305 299 295 294 282 270 267 258 243 244 255
293 293 295 293 296 297 303 303 305 307 308 309 311 312 313 315 316 318 319 322 323 325 325 326 328 332 334 332 331 328 325 322 317 309 305 302 289 277 264 260 245 233 241 254
290 289 293 296 299 297 300 301 305 305 306 307 308 312 313 315 316 318 320 324 325 326 328 329 332 336 337 338 337 336 333 329 324 316 306 297 288 280 266 258 230 227 242 255
293 293 298 296 298 298 299 303 303 305 305 306 311 313 314 315 316 319 323 325 327 326 329 330 332 333 334 333 332 333 334 334 332 328 319 305 289 275 262 242 213 222 233 252
300 300 299 295 293 297 300 300 302 304 306 310 312 313 314 315 318 321 325 326 327 328 331 330 335 336 332 329 327 330 333 331 332 330 329 323 300 274 252 206 202 211 219 215
302 297 289 284 295 299 297 296 300 304 307 311 312 312 313 316 318 322 326 327 327 328 329 330 334 332 331 333 336 335 325 329 332 329 330 336 328 281 184 178 188 197 193 211
Height
5881 5881 5881 5881 5881 5881 5881 5881 5880 5877 5874 5873 5871 5869 5867 5866 5863 5861 5858 5856 5853 5850 5847 5844 5840 5837 5833 5831 5829 5826 5823 5820 5816 5814 5812 5810 5809 5808 5807 5805 5803 5801 5800 5798
5879 5878 5878 5878 5878 5878 5878 5877 5876 5873 5870 5868 5864 5862 5861 5860 5857 5854 5850 5847 5843 5840 5836 5833 5830 5826 5823 5820 5818 5815 5812 5808 5805 5803 5800 5798 5795 5793 5791 5790 5789 5789 5788 5787
5875 5876 5875 5875 5875 5875 5874 5873 5871 5870 5865 5861 5856 5853 5853 5851 5848 5844 5841 5838 5834 5830 5826 5823 5820 5817 5813 5810 5806 5802 5798 5794 5791 5787 5783 5781 5779 5777 5774 5772 5770 5770 5771 5771
5872 5873 5872 5872 5871 5871 5869 5867 5865 5862 5860 5856 5850 5843 5845 5842 5838 5834 5830 5826 5823 5819 5815 5812 5808 5804 5799 5794 5790 5786 5781 5777 5773 5770 5766 5763 5760 5758 5756 5755 5753 5750 5749 5750
5871 5870 5869 5868 5867 5866 5864 5860 5858 5855 5851 5849 5845 5836 5836 5834 5829 5825 5820 5816 5811 5807 5803 5798 5794 5788 5782 5776 5772 5767 5762 5758 5755 5752 5749 5746 5743 5741 5739 5736 5734 5733 5732 5729
5866 5865 5864 5862 5862 5860 5857 5853 5850 5847 5843 5840 5837 5831 5829 5824 5820 5815 5810 5805 5800 5796 5791 5786 5779 5772 5766 5759 5753 5748 5744 5740 5737 5734 5731 5727 5723 5721 5719 5716 5714 5714 5711 5709
5861 5860 5859 5857 5856 5854 5850 5846 5842 5839 5835 5832 5828 5822 5820 5815 5809 5804 5798 5793 5789 5783 5777 5769 5762 5755 5748 5741 5736 5730 5726 5722 5718 5713 5709 5704 5699 5696 5694 5691 5689 5689 5687 5685
5857 5856 5853 5852 5849 5846 5842 5838 5834 5829 5827 5825 5820 5816 5811 5805 5797 5791 5785 5781 5775 5768 5759 5752 5744 5737 5729 5722 5716 5711 5705 5701 5695 5689 5683 5679 5673 5668 5666 5662 5661 5660 5658 5658
5852 5851 5849 5846 5842 5839 5835 5832 5828 5823 5819 5814 5812 5808 5803 5793 5786 5780 5774 5767 5761 5752 5744 5735 5727 5719 5711 5704 5697 5690 5683 5676 5667 5661 5655 5651 5644 5637 5634 5630 5629 5627 5628 5629
5848 5846 5842 5839 5835 5832 5828 5824 5820 5815 5808 5803 5802 5797 5792 5781 5773 5765 5759 5751 5743 5733 5724 5716 5708 5700 5691 5683 5676 5668 5659 5651 5642 5633 5625 5620 5614 5605 5600 5597 5594 5593 5593 5594
5841 5839 5835 5831 5827 5824 5820 5816 5812 5807 5802 5793 5788 5788 5780 5768 5759 5751 5742 5735 5727 5718 5708 5699 5691 5682 5673 5665 5655 5645 5635 5626 5617 5607 5600 5592 5585 5577 5569 5566 5563 5561 5559 5558
5833 5830 5826 5823 5819 5816 5812 5806 5802 5797 5792 5785 5775 5778 5766 5759 5750 5739 5732 5722 5712 5703 5693 5684 5673 5663 5652 5642 5631 5619 5608 5599 5590 5581 5570 5564 5561 5555 5549 5545 5541 5538 5537 5537
5824 5821 5818 5815 5813 5807 5802 5797 5792 5786 5780 5777 5765 5765 5754 5746 5739 5728 5716 5710 5702 5691 5680 5667 5654 5642 5630 5618 5606 5594 5584 5574 5566 5557 5549 5543 5538 5532 5528 5525 5522 5519 5517 5518
5816 5814 5810 5806 5801 5797 5793 5787 5781 5775 5768 5761 5759 5748 5747 5731 5725 5721 5711 5696 5685 5672 5660 5648 5638 5626 5612 5596 5581 5570 5561 5549 5542 5535 5529 5523 5518 5513 5508 5506 5503 5502 5501 5501
5807 5805 5801 5797 5793 5787 5783 5778 5770 5762 5753 5746 5747 5734 5728 5720 5711 5701 5691 5682 5669 5657 5645 5631 5618 5605 5590 5575 5561 5548 5539 5528 5519 5513 5508 5503 5499 5495 5490 5487 5486 5486 5486 5485
5798 5793 5790 5788 5782 5775 5773 5767 5761 5752 5743 5735 5728 5725 5710 5707 5695 5686 5675 5661 5652 5640 5627 5614 5599 5581 5566 5551 5537 5525 5518 5508 5499 5494 5487 5482 5477 5473 5472 5469 5467 5468 5470 5470
5787 5782 5777 5774 5771 5764 5762 5757 5749 5742 5733 5723 5716 5711 5702 5693 5679 5668 5658 5645 5631 5619 5606 5592 5578 5562 5546 5530 5517 5505 5496 5488 5478 5470 5466 5461 5455 5453 5452 5451 5451 5453 5454 5456
5775 5770 5764 5761 5756 5752 5747 5740 5735 5727 5722 5709 5702 5693 5684 5676 5670 5654 5641 5627 5616 5601 5586 5573 5554 5540 5525 5510 5497 5483 5474 5465 5458 5452 5445 5441 5437 5435 5434 5434 5435 5438 5439 5442
5763 5757 5751 5747 5741 5738 5737 5726 5720 5710 5713 5698 5688 5679 5670 5661 5654 5647 5630 5615 5599 5584 5567 5549 5532 5516 5504 5490 5476 5465 5456 5445 5438 5432 5428 5424 5419 5418 5417 5417 5419 5424 5426 5429
5750 5745 5740 5734 5725 5724 5719 5711 5703 5696 5696 5687 5677 5666 5655 5645 5634 5633 5618 5607 5591 5573 5552 5532 5517 5502 5487 5473 5459 5448 5438 5429 5421 5414 5411 5408 5404 5401 5401 5402 5406 5410 5413 5416
5737 5732 5727 5719 5711 5715 5707 5697 5689 5686 5679 5671 5663 5654 5644 5633 5620 5609 5598 5590 5574 5556 5538 5525 5512 5491 5474 5461 5447 5435 5424 5415 5406 5399 5395 5392 5388 5385 5387 5389 5392 5396 5401 5403
5724 5718 5716 5708 5701 5694 5695 5686 5679 5673 5665 5657 5649 5640 5632 5622 5611 5598 5586 5571 5553 5540 5528 5516 5499 5484 5469 5452 5438 5426 5415 5405 5397 5389 5383 5377 5374 5372 5374 5376 5379 5385 5390 5393
5711 5708 5705 5697 5695 5683 5679 5674 5667 5660 5654 5646 5638 5628 5618 5610 5600 5588 5577 5562 5545 5526 5514 5500 5488 5476 5463 5448 5434 5422 5411 5399 5389 5380 5372 5367 5364 5363 5364 5366 5370 5377 5382 5386
5700 5695 5690 5681 5688 5675 5666 5661 5654 5647 5641 5633 5625 5615 5606 5597 5587 5577 5562 5548 5534 5519 5506 5493 5481 5469 5457 5444 5431 5417 5406 5396 5385 5375 5367 5360 5356 5355 5356 5359 5365 5372 5377 5381
5690 5685 5677 5668 5667 5663 5657 5650 5643 5636 5628 5620 5611 5602 5594 5584 5573 5562 5550 5536 5522 5509 5497 5485 5473 5462 5450 5437 5424 5413 5401 5392 5382 5373 5365 5357 5353 5350 5352 5357 5362 5369 5374 5378
5676 5670 5660 5653 5656 5651 5646 5639 5633 5626 5617 5609 5601 5593 5583 5572 5563 5552 5537 5524 5512 5501 5490 5480 5468 5457 5443 5429 5417 5406 5396 5387 5379 5372 5365 5359 5354 5352 5354 5358 5362 5367 5372 5377